Regional Weather Roundup
Issued by NWS

Home | Current Version | Previous Version | Text Only | Print | Product List | Glossary On
Versions: 1 2 3 4 5 6 7 8 9 10 11 12 13 14 15 16 17 18 19 20 21 22 23 24 25 26 27 28 29 30 31 32 33 34 35 36 37 38 39 40 41 42 43 44 45 46 47 48 49 50
000
ASUS43 KMPX 222001
RWRMN
WEATHER ROUNDUP FOR MINNESOTA
NATIONAL WEATHER SERVICE TWIN CITIES/CHANHASSEN MN
300 PM CDT WED OCT 22 2014


NOTE: "FAIR" INDICATES FEW OR NO CLOUDS BELOW 12,000 FEET WITH NO
SIGNIFICANT WEATHER AND/OR OBSTRUCTIONS TO VISIBILITY. N/A MEANS
CURRENT SKY AND/OR WEATHER CONDITIONS ARE NOT AVAILABLE.

MNZ060>063-068>070-222100-
   Twin Cities Metro

CITY           SKY/WX    TMP DP  RH WIND       PRES   REMARKS
TWIN CITIES    PTSUNNY   58  41  53 SE20G28   30.09F
ST PAUL        PTSUNNY   59  41  51 SE21G29   30.11F
CRYSTAL        PTSUNNY   60  41  49 SE22G28   30.06F
BLAINE         PTSUNNY   61  43  51 SE15G26   30.08F
LAKEVILLE      MOSUNNY   57  43  58 S17       30.09F
EDEN PRAIRIE   MOSUNNY   62  43  49 SE22G28   30.06F
SOUTH ST PAUL  MOSUNNY   59  40  49 SE12G24   30.10F
LAKE ELMO      CLOUDY    57  41  54 S17G25    30.12F
$$
MNZ001>005-007-008-013>017-022>024-027-028-222100-
   Northwest Minnesota

CITY           SKY/WX    TMP DP  RH WIND       PRES   REMARKS
BEMIDJI        PTSUNNY   59  44  56 S14G21    29.91S
HALLOCK        PTSUNNY   63  48  59 S25G31    29.76F
ROSEAU         PTSUNNY   64  48  55 S25       29.81R
WARROAD        MOSUNNY   63  48  59 S16G22    29.82F
THIEF RVR FALL PTSUNNY   63  45  51 S21       29.83F
CROOKSTON      CLOUDY    63  46  55 SW23G32   29.83F
FOSSTON        CLOUDY    61  43  51 S18G25    29.87F
DETROIT LAKES  CLOUDY    59  45  58 S17G24    29.91S
MOORHEAD       CLOUDY    66  46  48 S16G23    29.85F
PARK RAPIDS    CLOUDY    59  43  55 S20       29.93F
MAHNOMEN       FAIR      60  45  57 S17G24    29.87F
$$
MNZ006-009>011-018-025>026-222100-
   North Central Minnesota

CITY           SKY/WX    TMP DP  RH WIND       PRES   REMARKS
BAUDETTE       PTSUNNY   62  44  51 S16G25    29.87F
FLAG ISLAND    PTSUNNY   54  46  76 SE17      29.82F
INTL FALLS     MOSUNNY   62  42  47 S10G26    29.92F
WASKISH        PTSUNNY   63  45  51 SE13G22   29.90S
BIG FORK       SUNNY     61  43  51 S16G30    29.95F
LONGVILLE      PTSUNNY   59  43  55 SE16G22   29.96F
GRAND RAPIDS   SUNNY     55  39  54 SE17G25   29.99F
CRANE LAKE     MOSUNNY   59  39  47 SE9G18    30.02F
ORR            MOSUNNY   61  37  41 S13G21    29.96F
COOK           MOSUNNY   57  39  51 SE13G22   30.01F
WALKER         FAIR      58  42  55 SE15G25   29.94F
$$
MNZ012-019>021-037-222100-
   Northeast Minnesota

CITY           SKY/WX    TMP DP  RH WIND       PRES   REMARKS
DULUTH         PTSUNNY   56  38  50 S15       30.08F
ELY            MOSUNNY   57  36  44 S14       30.06F
HIBBING        CLOUDY    59  39  47 S15G25    30.02F
EVELETH        CLOUDY    57  41  54 SE15      30.06F
DULUTH HARBOR  CLOUDY    59  41  51 S9        30.11F
TWO HARBORS    PTSUNNY   54  30  40 E8        30.10F
SILVER BAY     SUNNY     54  39  58 E7        30.12F
GRAND MARAIS     N/A     48  39  71 E5        30.19F
G MARAIS ARPRT SUNNY     45  32  61 SE9       30.17S
$$
MNZ029>031-032-039>041-046>048-054>057-064-222100-
   West Central Minnesota

CITY           SKY/WX    TMP DP  RH WIND       PRES   REMARKS
FERGUS FALLS   CLOUDY    64  43  45 S21       29.89F
WHEATON        PTSUNNY   66  48  52 S15G21    29.89F
MORRIS         CLOUDY    66  48  52 S20G29    29.90F
ALEXANDRIA     PTSUNNY   61  44  53 S20G25    29.95F
ELBOW LAKE     FAIR      64  46  53 S21       29.90F
WADENA         CLOUDY    59  45  58 S18       29.94F
GLENWOOD       PTSUNNY   63  46  55 SE14      29.96F
APPLETON       CLOUDY    70  46  43 S8G16     29.91F
BENSON         PTSUNNY   66  46  48 S17G24    29.93F
ORTONVILLE     CLOUDY    68  48  49 S12       29.90F
MADISON        CLOUDY    72  50  46 S16       29.91S
WILLMAR        FAIR      66  43  42 S14G23    29.97F
$$
MNZ033>034-036-042>043-049>051-058-059-222100-
   Central Minnesota

CITY           SKY/WX    TMP DP  RH WIND       PRES   REMARKS
ST CLOUD       MOSUNNY   62  42  47 SE23      30.01F
SAUK CENTRE    FAIR      64  44  48 SE24      29.97F
PAYNESVILLE    PTSUNNY   61  43  51 E16G25    29.98F
AITKIN         MOSUNNY   59  43  55 S20G28    30.00S
PINE RIVER     MOSUNNY   57  45  62 SE17      30.00F
BRAINERD       MOSUNNY   57  42  57 SE18G30   29.99F
STAPLES        PTSUNNY   59  43  55 S16G25    29.97S
LONG PRAIRIE   FAIR      59  43  55 SE20G25   29.97F
LITTLE FALLS   PTSUNNY   59  41  51 SE16G23   29.99F
LITCHFIELD     PTSUNNY   64  45  48 SE13G21   29.99F
BUFFALO        MOSUNNY   59  41  51 SE15G23   30.04F
MAPLE LAKE     MOSUNNY   61  45  55 SE13G26   30.03F
$$
MNZ037-044-045-052-053-222100-
   East Central Minnesota

CITY           SKY/WX    TMP DP  RH WIND       PRES   REMARKS
PRINCETON      MOSUNNY   61  43  51 SE18G24   30.04F
MORA           MOSUNNY   54  37  54 S13G21    30.08F
CAMBRIDGE      FAIR      61  43  51 SE9G17    30.05F
RUSH CITY      CLOUDY    56  40  54 SE12G23   30.08F
MOOSE LAKE     PTSUNNY   55  37  50 S9        30.05F
HINCKLEY       CLOUDY    55  41  58 SE13G20   30.08F
CLOQUET        CLOUDY    57  37  47 SE12      30.07F
MCGREGOR       MOSUNNY   57  41  54 SE20      30.03F
$$
MNZ071>073-080-081-089-090-097-098-222100-
   Southwest Minnesota

CITY           SKY/WX    TMP DP  RH WIND       PRES   REMARKS
MONTEVIDEO     CLOUDY    68  46  45 S15G22    29.93F
GRANITE FALLS  CLOUDY    67  47  48 SE17G23   29.96F
CANBY          CLOUDY    70  50  48 S12G20    29.92S
MARSHALL       CLOUDY    70  46  43 S17G23    29.93F
REDWOOD FALLS  CLOUDY    67  45  45 S24G31    29.96F
OLIVIA         PTSUNNY   64  45  48 S17G26    29.96F
PIPESTONE      PTSUNNY   72  50  46 SW17G29   29.93F
WINDOM         CLOUDY    66  45  45 S18G25    29.98F
WORTHINGTON    PTSUNNY   70  46  43 S18G25    29.98F
JACKSON        PTSUNNY   66  43  42 SE20      30.02F
TRACY          CLOUDY    67  48  49 S14G21    29.95F
SLAYTON        CLOUDY    72  46  40 S20G30    29.95F
$$
MNZ065>067-074>077-082>085-091>093-222100-
   South Central Minnesota

CITY           SKY/WX    TMP DP  RH WIND       PRES   REMARKS
MANKATO        MOSUNNY   63  43  48 SE24G33   30.05F
NEW ULM        MOSUNNY   64  46  52 S21G29    30.01F
ST JAMES       MOSUNNY   64  43  45 SE20G30   30.03F
FAIRMONT       MOSUNNY   64  43  45 S22G30    30.04F
GLENCOE        MOSUNNY   65  46  50 SE21G26   30.02F
FARIBAULT      MOSUNNY   61  43  51 SE18G24   30.10F
OWATONNA       MOSUNNY   59  41  51 SE13G26   30.11F
WASECA         MOSUNNY   55  37  50 SE17G24   30.11F
ALBERT LEA     MOSUNNY   61  43  51 SE17G23   30.11F
$$
MNZ078>079-086>088-094>096-222100-
   Southeast Minnesota

CITY           SKY/WX    TMP DP  RH WIND       PRES   REMARKS
ROCHESTER      MOSUNNY   57  40  52 SE15G28   30.16F
STANTON        CLOUDY    59  40  49 S15G23    30.10F
DODGE CENTER   MOSUNNY   57  41  54 S22       30.13F
WINONA         SUNNY     59  37  44 S9        30.19F
AUSTIN         MOSUNNY   57  43  58 S14G22    30.14F
PRESTON        PTSUNNY   56  39  53 S14G24    30.18F
$$
ABBREVIATIONS USED IN REMARKS
   TC - TEMPERATURES IN CELSIUS
  WCI - WIND CHILL INDEX
   HX - HEAT INDEX
  VSB - VISIBILITY
$$



USA.gov is the U.S. government's official web portal to all federal, state and local government web resources and services.